Tracking 30986 objects as of 9-Jul-2025
HD Live streaming from Space Station
objects crossing your sky now

SL-8 DEB

Track SL-8 DEB now!
10-day predictions


NORAD ID: 6065
Int'l Code: 1972-043D
Perigee: 581.6 km
Apogee: 598.0 km
Inclination: 74.1 °
Period: 96.3 minutes
Semi major axis: 6960 km
RCS: 0.0066 m2 (small)
Launch date: June 23, 1972
Source: Commonwealth of Independent States (former USSR) (CIS)
Launch site: PLESETSK MISSILE AND SPACE COMPLEX (PKMTR)

Note: This is SATELLITE DEBRIS
Your satellite tracking list
Your tracking list is empty




NASA's NSSDC Master Catalog

Two Line Element Set (TLE):
1 06065U 72043D   25189.19211836  .00005866  00000-0  53986-3 0  9998
2 06065  74.0596 165.3845 0011772 303.6292  56.3768 14.94919524806316
Source of the keplerian elements: AFSPC